Погода в Урдомах

Россия / Ярославская область     57°56′32″N   39°35′06″E
темп.,
°C
ветер,
м/с
пор.,
м/с
влажн.,
%
обл.,
%
осадки,
мм/ч
давл.,
гПа
погр.,
м
15 мая, сб
сб1500:00+13юв389771 0.2 1014223
03:00+11юв279782 0.2 1013164
06:00+14вюв41097100 0.0 1011346
09:00+18юв4785100 0.5 1010385
12:00+22ююв5972100 0.1 1009899
15:00+21юв71179100 3.7 1008957
18:00+19ю51185100 2.9 1006485
21:00+15ю412895 4.7 1007319
16 мая, вс
вс1600:00+13ю411950 0.3 1008301
03:00+12ю411975 0.3 1008288
06:00+13ю4119643 0.0 1009397
09:00+17ююз588053 0.0 1009935
12:00+18ююз597674 0.8 10101340
15:00+18юз6107871 3.1 10101136
18:00+17юз598361 3.2 1010664
21:00+14юз369477 5.4 1012130
17 мая, пн
пн1700:00+13юз259613 0.0 101388
03:00+12юз22960 0.0 101524
06:00+14ююз12935 0.0 101689
09:00+18ю2380100 0.0 1016510
12:00+21ююв336480 0.0 10161236
15:00+22ююв3458100 0.0 10151349
18:00+21вюв257118 0.0 1014241
21:00+16вюв389019 0.1 1014141
18 мая, вт
вт1800:00+15вюв411895 0.0 1013215
03:00+14вюв38955 0.0 1012133
06:00+16вюв4118819 0.0 1012260
09:00+21юв6126738 0.0 1011514
12:00+25юв613568 0.0 10101106
15:00+26юв712535 0.0 10091316
18:00+23юв6136199 0.0 1008728
21:00+19юв515740 0.0 1008374
19 мая, ср
ср1900:00+17юв4147671 0.0 1008340
03:00+15юв388780 0.0 1008193
06:00+16юв41088100 0.0 1007298
09:00+20ююв587480 0.0 1006639
12:00+23ююв61059100 0.1 10061545
15:00+20ююв81373100 1.6 10051467
18:00+17ююв61283100 2.4 1004918
21:00+14ю5139345 3.9 1003615